This is the latest recevied weather packets stored in our database for station/object KJ4EBE. If no packets are shown the sender has not sent any weather packets the latest 10 day(s).
| Time | Temp. | Humidity | Pressure | Rain* | Wind** | Luminosity | Snow |
|---|---|---|---|---|---|---|---|
| 1777208596 | 22.78° C | 93% | 1008.5 hPa | 0 mm | - | 70 W/m² | - |
| 1777208293 | 22.78° C | 94% | 1008.3 hPa | 0 mm | - | 84 W/m² | - |
| 1777207990 | 22.78° C | 94% | 1008.1 hPa | 0 mm | - | 94 W/m² | - |
| 1777207685 | 22.78° C | 94% | 1007.9 hPa | 0 mm | - | 87 W/m² | - |
| 1777207380 | 22.22° C | 95% | 1008.1 hPa | 0 mm | - | 69 W/m² | - |
| 1777207079 | 22.22° C | 95% | 1007.9 hPa | 0 mm | - | 48 W/m² | - |
| 1777206776 | 22.22° C | 95% | 1008.2 hPa | 0 mm | - | 34 W/m² | - |
| 1777206476 | 22.22° C | 96% | 1008.1 hPa | 0 mm | - | 29 W/m² | - |
| 1777206171 | 21.67° C | 96% | 1007.7 hPa | 0 mm | - | 14 W/m² | - |
| 1777205868 | 21.67° C | 96% | 1007.7 hPa | 0 mm | - | 14 W/m² | - |
| 1777205564 | 21.67° C | 96% | 1007.3 hPa | 0 mm | - | 12 W/m² | - |
| 1777205260 | 21.67° C | 96% | 1007.1 hPa | 0 mm | - | 9 W/m² | - |
| 1777204956 | 21.67° C | 97% | 1007.2 hPa | 0 mm | - | 6 W/m² | - |
| 1777204652 | 21.67° C | 97% | 1007.2 hPa | 0 mm | - | 3 W/m² | - |
| 1777204347 | 21.67° C | 97% | 1007.3 hPa | 0 mm | - | 2 W/m² | - |
| 1777204045 | 21.67° C | 97% | 1007.3 hPa | 0 mm | - | 0 W/m² | - |
| 1777203744 | 21.67° C | 97% | 1007.2 hPa | 0 mm | - | 0 W/m² | - |
| 1777203440 | 21.67° C | 97% | 1007.2 hPa | 0 mm | - | 0 W/m² | - |
| 1777203135 | 21.67° C | 98% | 1007.1 hPa | 0 mm | - | 0 W/m² | - |
| 1777202833 | 21.67° C | 98% | 1007 hPa | 0 mm | - | 0 W/m² | - |
| 1777202531 | 21.67° C | 97% | 1006.7 hPa | 0 mm | - | 0 W/m² | - |
| 1777202226 | 21.67° C | 97% | 1006.7 hPa | 0 mm | - | 0 W/m² | - |
| 1777201923 | 21.67° C | 97% | 1006.7 hPa | 0 mm | - | 0 W/m² | - |
| 1777201619 | 21.67° C | 97% | 1006.5 hPa | 0 mm | - | 0 W/m² | - |
| 1777201315 | 21.67° C | 97% | 1006.5 hPa | 0 mm | - | 0 W/m² | - |
* Rain latest hour (hover to see other rain measurements)
** Current wind speed in m/s (hover to see current wind gust speed)